Weather in Chernovskiy

Russia / Samara Oblast     53°11′02″N   50°27′35″E
temp.,
°C
wind,
m/s
gust,
m/s
humid.,
%
clouds,
%
prec.,
mm/h
press.,
hPa
HPBL,
m
27 february, sat
sat2701:00−9sse81495100 4.6 1003610
04:00−6sse5996100 8.4 1000343
07:00−5sse2397100 0.2 999110
10:00+1wsw4910094 0.2 998470
13:00+1wsw510100100 0.1 998418
16:00+1wsw49100100 0.4 998408
19:000wsw4898100 0.6 997336
22:000wsw3599100 1.3 998192
28 february, sun
sun2801:00−8nnw61192100 0.9 998291
04:00−11nnw7129299 1.2 1000400
07:00−13nw6129299 0.3 1002409
10:00−14nw6109299 0.3 1004417
13:00−12nw6990100 0.0 1007514
16:00−12nw6990100 0.1 1009549
19:00−14nw499496 0.1 1011400
22:00−14nnw499496 0.4 1014381
1 march, mon
mon101:00−15nnw489486 0.1 1015274
04:00−18nnw499489 0.2 1017239
07:00−21nnw469655 0.0 1018119
10:00−19nnw479329 0.0 1021255
13:00−15nnw469045 0.0 1022349
16:00−14nnw468959 0.0 1022406
19:00−19nw239525 0.0 102320
22:00−21w119612 0.0 102320
2 march, tue
tue201:00−21sw22960 0.0 102220
04:00−20ssw3310023 0.0 102040
07:00−17ssw3997100 0.0 1016207
10:00−12ssw51094100 0.1 1013391
13:00−8ssw71292100 0.3 1010607
16:00−5ssw71293100 0.4 1006725
19:00−3ssw51296100 0.8 1003576
22:00−2sw51097100 1.7 1002420
3 march, wed
wed301:00−4wnw3495100 0.3 100182
04:00−5w359799 0.3 1001105
07:00−7w469469 0.3 100190
10:00−2wnw6109569 1.1 1002714
13:00−2nw71190100 0.5 1003944
16:00−2nw71188100 0.7 1004960
19:00−4wnw499699 0.2 1005312
22:00−6nw5129299 0.3 1008430